| time (UTC) | temp C | wind direction | speed KPH | gust KPH | rain 1hr cm | rain 24hr cm | rain mn cm | humidity % | barometer mb |
| 20260505095804 | 22 | 180 | 4.8 | 0.0 | 0.00 | 0.00 | 0.00 | 43 | 1007.0 |
| 20260505092803 | 22 | 0 | 1.6 | 0.0 | 0.00 | 0.00 | 0.00 | 46 | 1008.0 |
| 20260505085804 | 21 | 0 | 3.2 | 0.0 | 0.00 | 0.00 | 0.00 | 46 | 1008.0 |
| 20260505082804 | 20 | 0 | 3.2 | 0.0 | 0.00 | 0.00 | 0.00 | 49 | 1008.0 |
| 20260505075804 | 20 | 0 | 3.2 | 0.0 | 0.00 | 0.00 | 0.00 | 52 | 1008.0 |
| 20260505072803 | 18 | 0 | 1.6 | 0.0 | 0.00 | 0.00 | 0.00 | 52 | 1009.0 |
| 20260505065804 | 17 | 90 | 4.8 | 0.0 | 0.00 | 0.00 | 0.00 | 59 | 1009.0 |
| 20260505062805 | 17 | 80 | 8.0 | 0.0 | 0.00 | 0.00 | 0.00 | 63 | 1009.0 |
| 20260505055804 | 16 | 40 | 4.8 | 0.0 | 0.00 | 0.00 | 0.00 | 67 | 1009.0 |
| 20260505052804 | 15 | 0 | 3.2 | 0.0 | 0.00 | 0.00 | 0.00 | 72 | 1009.0 |
| 20260505035804 | 13 | 0 | 3.2 | 0.0 | 0.00 | 0.00 | 0.00 | 71 | 1009.0 |
| 20260505032804 | 13 | 0 | 1.6 | 0.0 | 0.00 | 0.00 | 0.00 | 71 | 1009.0 |
| 20260505025905 | 12 | 0 | 3.2 | 0.0 | 0.00 | 0.00 | 0.00 | 76 | 1009.0 |
| 20260505022804 | 12 | 0 | 0.0 | 0.0 | 0.00 | 0.00 | 0.00 | 76 | 1009.0 |
| 20260505015804 | 13 | 0 | 0.0 | 0.0 | 0.00 | 0.00 | 0.00 | 71 | 1010.0 |
| 20260505012804 | 13 | 0 | 0.0 | 0.0 | 0.00 | 0.00 | 0.00 | 67 | 1010.0 |
| 20260505005804 | 13 | 0 | 3.2 | 0.0 | 0.00 | 0.00 | 0.00 | 67 | 1010.0 |
| 20260505002805 | 15 | 280 | 1.6 | 0.0 | 0.00 | 0.00 | 0.00 | 62 | 1010.0 |
| 20260504235805 | 15 | 0 | 3.2 | 0.0 | 0.00 | 0.00 | 0.00 | 62 | 1010.0 |
| 20260504232805 | 17 | 10 | 4.8 | 0.0 | 0.00 | 0.00 | 0.00 | 55 | 1011.0 |
| 20260504225804 | 16 | 20 | 4.8 | 0.0 | 0.00 | 0.00 | 0.00 | 59 | 1011.0 |
| 20260504222804 | 16 | 0 | 3.2 | 0.0 | 0.00 | 0.00 | 0.00 | 59 | 1011.0 |
| 20260504215804 | 17 | 0 | 3.2 | 0.0 | 0.00 | 0.00 | 0.00 | 55 | 1011.0 |
| 20260504212803 | 17 | 0 | 3.2 | 0.0 | 0.00 | 0.00 | 0.00 | 52 | 1011.0 |
| 20260504205805 | 18 | 20 | 4.8 | 0.0 | 0.00 | 0.00 | 0.00 | 48 | 1011.0 |
| 20260504202803 | 18 | 40 | 4.8 | 0.0 | 0.00 | 0.00 | 0.00 | 45 | 1011.0 |
| 20260504195805 | 18 | 0 | 3.2 | 0.0 | 0.00 | 0.00 | 0.00 | 42 | 1011.0 |
| 20260504192804 | 20 | 0 | 3.2 | 0.0 | 0.00 | 0.00 | 0.00 | 40 | 1011.0 |
| 20260504185804 | 20 | 0 | 3.2 | 0.0 | 0.00 | 0.00 | 0.00 | 40 | 1011.0 |
| 20260504182804 | 20 | 0 | 3.2 | 0.0 | 0.00 | 0.00 | 0.00 | 40 | 1011.0 |
| 20260504175804 | 22 | 0 | 1.6 | 0.0 | 0.00 | 0.00 | 0.00 | 33 | 1011.0 |
| 20260504172803 | 22 | 0 | 3.2 | 0.0 | 0.00 | 0.00 | 0.00 | 33 | 1011.0 |